When you browse on this site, cookies collect data to enhance your experience and personalize the content and advertising you see.
Visit our Privacy Policy to learn more. By continuing to use the site, you agree to this use of cookies and data.
  • în România
  • Lista ţărilor
  • Pe 7 zile
  • Temperatura apei
  • Meteo pe hartă
  • Widget-uri
  • user-avatar
    Intrare

    Meteo pe oră la Kambia

    Astăzi, 6 Aprilie, Luni

    Timp Temperatura Precipitaţii Vânt Presiune Umiditate
    00:00 +29°C° 0 mm 1 m/s 754 mmHg 82%
    01:00 +29°C° 0 mm 1 m/s 754 mmHg 83%
    02:00 +29°C° 0 mm 1 m/s 754 mmHg 84%
    03:00 +29°C° 0 mm 1 m/s 754 mmHg 85%
    04:00 +28°C° 0 mm 1 m/s 754 mmHg 86%
    05:00 +28°C° 0 mm 2 m/s 754 mmHg 87%
    06:00 +29°C° 0 mm 2 m/s 755 mmHg 80%
    07:00 +31°C° 0 mm 2 m/s 755 mmHg 72%
    08:00 +32°C° 0 mm 2 m/s 756 mmHg 65%
    09:00 +35°C° 0 mm 3 m/s 756 mmHg 59%
    10:00 +36°C° 0 mm 3 m/s 755 mmHg 52%
    11:00 +38°C° 0 mm 3 m/s 755 mmHg 45%
    12:00 +38°C° 0 mm 4 m/s 754 mmHg 44%
    13:00 +40°C° 0 mm 4 m/s 753 mmHg 43%
    14:00 +40°C° 0 mm 4 m/s 753 mmHg 41%
    15:00 +37°C° 0 mm 4 m/s 753 mmHg 46%
    16:00 +36°C° 0 mm 4 m/s 752 mmHg 51%
    17:00 +35°C° 0 mm 4 m/s 752 mmHg 56%
    18:00 +33°C° 0 mm 4 m/s 753 mmHg 62%
    19:00 +31°C° 0 mm 3 m/s 754 mmHg 69%
    20:00 +30°C° 0 mm 2 m/s 755 mmHg 76%
    21:00 +29°C° 0 mm 2 m/s 755 mmHg 78%
    22:00 +29°C° 0 mm 1 m/s 755 mmHg 80%
    23:00 +29°C° 0 mm 1 m/s 755 mmHg 82%

    Mâine, 7 Aprilie, Marţi

    Timp Temperatura Precipitaţii Vânt Presiune Umiditate
    00:00 +29°C° 0 mm 1 m/s 755 mmHg 83%
    01:00 +28°C° 0 mm 1 m/s 755 mmHg 84%
    02:00 +28°C° 0 mm 1 m/s 754 mmHg 85%
    03:00 +28°C° 0 mm 1 m/s 754 mmHg 86%
    04:00 +28°C° 0 mm 1 m/s 754 mmHg 86%
    05:00 +28°C° 0 mm 1 m/s 754 mmHg 87%
    06:00 +29°C° 0 mm 1 m/s 755 mmHg 80%
    07:00 +30°C° 0 mm 1 m/s 755 mmHg 73%
    08:00 +32°C° 0 mm 2 m/s 756 mmHg 66%
    09:00 +34°C° 0 mm 2 m/s 756 mmHg 61%
    10:00 +35°C° 0 mm 2 m/s 755 mmHg 55%
    11:00 +37°C° 0 mm 2 m/s 755 mmHg 49%
    12:00 +37°C° 0 mm 3 m/s 754 mmHg 47%
    13:00 +38°C° 0 mm 3 m/s 754 mmHg 45%
    14:00 +39°C° 0 mm 3 m/s 753 mmHg 43%
    15:00 +37°C° 0 mm 4 m/s 753 mmHg 47%
    16:00 +36°C° 0 mm 4 m/s 752 mmHg 51%
    17:00 +35°C° 0 mm 4 m/s 752 mmHg 55%
    18:00 +33°C° 0 mm 4 m/s 753 mmHg 62%
    19:00 +31°C° 0 mm 3 m/s 754 mmHg 70%
    20:00 +29°C° 0 mm 3 m/s 754 mmHg 77%
    21:00 +29°C° 0 mm 2 m/s 755 mmHg 79%
    22:00 +29°C° 0 mm 2 m/s 755 mmHg 81%
    23:00 +29°C° 0 mm 1 m/s 755 mmHg 82%

    Poimâine, 8 Aprilie, Miercuri

    Timp Temperatura Precipitaţii Vânt Presiune Umiditate
    00:00 +28°C° 0 mm 1 m/s 755 mmHg 84%
    01:00 +28°C° 0 mm 1 m/s 754 mmHg 85%
    02:00 +28°C° 0 mm 1 m/s 754 mmHg 86%
    03:00 +28°C° 0 mm 1 m/s 754 mmHg 87%
    04:00 +27°C° 0 mm 1 m/s 754 mmHg 87%
    05:00 +27°C° 0 mm 1 m/s 754 mmHg 88%
    06:00 +29°C° 0 mm 1 m/s 754 mmHg 81%
    07:00 +30°C° 0 mm 2 m/s 755 mmHg 74%
    08:00 +31°C° 0 mm 2 m/s 755 mmHg 68%
    09:00 +34°C° 0 mm 2 m/s 755 mmHg 62%
    10:00 +35°C° 0 mm 3 m/s 754 mmHg 55%
    11:00 +37°C° 0 mm 3 m/s 754 mmHg 49%
    12:00 +37°C° 0 mm 3 m/s 754 mmHg 48%
    13:00 +37°C° 0 mm 4 m/s 753 mmHg 47%
    14:00 +38°C° 0 mm 4 m/s 752 mmHg 45%
    15:00 +36°C° 0.2 mm 4 m/s 752 mmHg 50%
    16:00 +35°C° 0.2 mm 4 m/s 752 mmHg 54%
    17:00 +34°C° 0.2 mm 4 m/s 752 mmHg 59%
    18:00 +31°C° 0 mm 3 m/s 752 mmHg 65%
    19:00 +30°C° 0 mm 3 m/s 753 mmHg 70%
    20:00 +29°C° 0 mm 2 m/s 753 mmHg 76%
    21:00 +29°C° 0 mm 2 m/s 754 mmHg 78%
    22:00 +28°C° 0 mm 2 m/s 754 mmHg 79%
    23:00 +28°C° 0 mm 1 m/s 754 mmHg 81%

    9 Aprilie, Joi

    Timp Temperatura Precipitaţii Vânt Presiune Umiditate
    00:00 +28°C° 0 mm 1 m/s 754 mmHg 82%
    01:00 +27°C° 0 mm 1 m/s 753 mmHg 83%
    02:00 +25°C° 0 mm 0 m/s 753 mmHg 84%
    03:00 +25°C° 0 mm 0 m/s 753 mmHg 85%
    04:00 +27°C° 0 mm 1 m/s 753 mmHg 85%
    05:00 +27°C° 0 mm 1 m/s 754 mmHg 86%
    06:00 +28°C° 0 mm 1 m/s 754 mmHg 79%
    07:00 +30°C° 0 mm 2 m/s 754 mmHg 72%
    08:00 +31°C° 0 mm 2 m/s 754 mmHg 65%
    09:00 +34°C° 0 mm 2 m/s 754 mmHg 58%
    10:00 +36°C° 0 mm 2 m/s 754 mmHg 51%
    11:00 +38°C° 0 mm 2 m/s 754 mmHg 43%
    12:00 +39°C° 0 mm 3 m/s 753 mmHg 42%
    13:00 +39°C° 0 mm 3 m/s 752 mmHg 41%
    14:00 +40°C° 0 mm 4 m/s 751 mmHg 40%
    15:00 +38°C° 0 mm 4 m/s 751 mmHg 45%
    16:00 +36°C° 0 mm 4 m/s 751 mmHg 50%
    17:00 +34°C° 0 mm 4 m/s 751 mmHg 56%
    18:00 +33°C° 0 mm 4 m/s 751 mmHg 63%
    19:00 +31°C° 0 mm 3 m/s 752 mmHg 69%
    20:00 +29°C° 0 mm 2 m/s 752 mmHg 76%
    21:00 +29°C° 0 mm 2 m/s 753 mmHg 78%
    22:00 +29°C° 0 mm 2 m/s 753 mmHg 80%
    23:00 +28°C° 0 mm 2 m/s 753 mmHg 82%

    10 Aprilie, Vineri

    Timp Temperatura Precipitaţii Vânt Presiune Umiditate
    00:00 +28°C° 0 mm 1 m/s 753 mmHg 83%
    01:00 +28°C° 0 mm 1 m/s 752 mmHg 84%
    02:00 +28°C° 0 mm 1 m/s 752 mmHg 86%
    03:00 +27°C° 0 mm 1 m/s 752 mmHg 86%
    04:00 +27°C° 0 mm 1 m/s 752 mmHg 87%
    05:00 +27°C° 0 mm 1 m/s 753 mmHg 88%
    06:00 +29°C° 0 mm 1 m/s 753 mmHg 81%
    07:00 +30°C° 0 mm 1 m/s 754 mmHg 74%
    08:00 +31°C° 0 mm 1 m/s 754 mmHg 68%
    09:00 +34°C° 0 mm 2 m/s 754 mmHg 62%
    10:00 +35°C° 0 mm 2 m/s 754 mmHg 57%
    11:00 +36°C° 0 mm 2 m/s 754 mmHg 52%
    12:00 +37°C° 0 mm 2 m/s 753 mmHg 50%
    13:00 +38°C° 0 mm 2 m/s 752 mmHg 48%
    14:00 +38°C° 0 mm 3 m/s 751 mmHg 46%
    15:00 +37°C° 0 mm 3 m/s 751 mmHg 49%
    16:00 +36°C° 0 mm 3 m/s 751 mmHg 53%
    17:00 +35°C° 0 mm 4 m/s 751 mmHg 57%
    18:00 +33°C° 0 mm 3 m/s 751 mmHg 65%
    19:00 +31°C° 0 mm 3 m/s 752 mmHg 72%
    20:00 +29°C° 0 mm 3 m/s 752 mmHg 79%
    21:00 +29°C° 0 mm 2 m/s 753 mmHg 81%
    22:00 +29°C° 0 mm 2 m/s 753 mmHg 83%
    23:00 +29°C° 0 mm 2 m/s 753 mmHg 84%

    11 Aprilie, Sâmbătă

    Timp Temperatura Precipitaţii Vânt Presiune Umiditate
    00:00 +28°C° 0 mm 2 m/s 753 mmHg 85%
    01:00 +28°C° 0 mm 2 m/s 753 mmHg 86%
    02:00 +28°C° 0 mm 1 m/s 752 mmHg 87%
    03:00 +28°C° 0 mm 1 m/s 752 mmHg 88%
    04:00 +28°C° 0 mm 1 m/s 753 mmHg 89%
    05:00 +27°C° 0 mm 1 m/s 753 mmHg 90%
    06:00 +29°C° 0 mm 1 m/s 753 mmHg 83%
    07:00 +30°C° 0 mm 1 m/s 754 mmHg 77%
    08:00 +31°C° 0 mm 2 m/s 754 mmHg 70%
    09:00 +34°C° 0 mm 2 m/s 754 mmHg 64%
    10:00 +35°C° 0 mm 2 m/s 754 mmHg 58%
    11:00 +37°C° 0 mm 2 m/s 754 mmHg 51%
    12:00 +37°C° 0 mm 2 m/s 753 mmHg 50%
    13:00 +37°C° 0 mm 3 m/s 752 mmHg 49%
    14:00 +37°C° 0 mm 3 m/s 752 mmHg 48%
    15:00 +36°C° 0 mm 4 m/s 752 mmHg 52%
    16:00 +35°C° 0 mm 4 m/s 751 mmHg 57%
    17:00 +34°C° 0 mm 4 m/s 751 mmHg 61%
    18:00 +33°C° 0.2 mm 4 m/s 752 mmHg 68%
    19:00 +30°C° 0.2 mm 3 m/s 753 mmHg 75%
    20:00 +29°C° 0.2 mm 2 m/s 754 mmHg 82%
    21:00 +29°C° 0 mm 2 m/s 754 mmHg 83%
    22:00 +29°C° 0 mm 1 m/s 754 mmHg 84%
    23:00 +28°C° 0 mm 1 m/s 755 mmHg 85%
    Arată mai mult